Terminal Aerodrome Forecast
Issued by NWS Portland, ME

Home | Current Version | Previous Version | Text Only | Print | Product List | Glossary On
Versions: 1 2 3 4 5 6 7 8 9 10 11 12 13 14 15 16 17 18 19 20 21 22 23 24 25 26 27
000
FTUS41 KGYX 241426 AAB
TAFPWM
TAF AMD
KPWM 241426Z 2414/2512 34010G17KT 2SM -SHRA OVC013
     FM241600 34013G20KT P6SM -SHRA BKN015 OVC040
     FM241800 33013G20KT P6SM SCT025 BKN035 OVC050
     FM242200 32007KT P6SM BKN050=

USA.gov is the U.S. government's official web portal to all federal, state and local government web resources and services.